Location: Huberhof
(49.2050°N, 7.4980°E)
Time: 05:05:55
(UTC+00:00)

Cosmos 2278 - Pass Details

Date: 29 October 2020
Orbit: 842 x 851 km, 71.1° (Epoch: 25 November)

Event Time Altitude Azimuth Distance (km) Brightness Sun altitude
Rises 18:03:24 0° 185° (S) 3,398 6.9 -18.5°
Reaches altitude 10° 18:05:56 10° 179° (S) 2,465 6.1 -18.9°
Maximum altitude 18:11:15 44° 109° (ESE) 1,167 4.0 -19.8°
Enters shadow 18:12:45 36° 71° (ENE) 1,319 4.2 -20.0°
